Time,TemperatureF,DewpointF,PressureIn,WindDirection,WindDirectionDegrees,WindSpeedMPH,WindSpeedGustMPH,Humidity,HourlyPrecipIn,Conditions,Clouds,dailyrainin,SoftwareType,DateUTC
2013-10-03 00:00:00,63.4,60.1,30.01,West,275,0.0,0.0,89,0.00,,---,0.00,VWS V14.01,2013-10-03 04:00:00,
2013-10-03 00:01:00,63.4,60.1,30.01,West,275,0.0,0.0,89,0.00,,---,0.00,VWS V14.01,2013-10-03 04:01:00,
2013-10-03 00:02:00,63.3,60.3,30.01,West,275,0.0,0.0,90,0.00,,---,0.00,VWS V14.01,2013-10-03 04:02:00,
2013-10-03 00:04:00,63.3,60.3,30.01,West,275,0.0,0.0,90,0.00,,---,0.00,VWS V14.01,2013-10-03 04:04:00,
2013-10-03 00:05:00,63.2,60.2,30.01,West,275,0.0,0.0,90,0.00,,---,0.00,VWS V14.01,2013-10-03 04:05:00,
2013-10-03 00:10:00,63.1,60.1,30.01,West,275,0.0,0.0,90,0.00,,---,0.00,VWS V14.01,2013-10-03 04:10:00,
2013-10-03 00:15:00,62.9,60.2,30.01,West,275,0.0,0.0,91,0.00,,---,0.00,VWS V14.01,2013-10-03 04:15:00,
2013-10-03 00:20:00,62.9,60.2,30.01,West,275,0.0,0.0,91,0.00,,---,0.00,VWS V14.01,2013-10-03 04:20:00,
2013-10-03 00:25:00,63.0,60.3,30.01,West,275,0.0,0.0,91,0.00,,---,0.00,VWS V14.01,2013-10-03 04:25:00,
2013-10-03 00:30:00,62.9,59.9,30.01,West,275,0.0,0.0,90,0.00,,---,0.00,VWS V14.01,2013-10-03 04:30:00,
2013-10-03 00:35:00,62.8,59.8,30.01,West,275,0.0,0.0,90,0.00,,---,0.00,VWS V14.01,2013-10-03 04:35:00,
2013-10-03 00:40:00,62.6,59.6,30.01,West,275,0.0,0.0,90,0.00,,---,0.00,VWS V14.01,2013-10-03 04:40:00,
2013-10-03 00:45:00,62.4,59.4,30.01,West,275,0.0,0.0,90,0.00,,---,0.00,VWS V14.01,2013-10-03 04:45:00,
2013-10-03 00:50:00,62.2,59.5,30.01,West,275,0.0,0.0,91,0.00,,---,0.00,VWS V14.01,2013-10-03 04:50:00,
2013-10-03 00:55:00,62.1,59.8,30.01,West,275,0.0,0.0,92,0.00,,---,0.00,VWS V14.01,2013-10-03 04:55:00,
2013-10-03 01:00:00,62.2,59.8,30.02,West,275,0.0,0.0,92,0.00,,---,0.00,VWS V14.01,2013-10-03 05:00:00,
2013-10-03 01:05:00,62.2,59.5,30.02,West,275,0.0,0.0,91,0.00,,---,0.00,VWS V14.01,2013-10-03 05:05:00,
2013-10-03 01:10:00,62.1,59.8,30.02,West,275,0.0,0.0,92,0.00,,---,0.00,VWS V14.01,2013-10-03 05:10:00,
2013-10-03 01:15:00,62.0,59.7,30.02,West,275,0.0,0.0,92,0.00,,---,0.00,VWS V14.01,2013-10-03 05:15:00,
2013-10-03 01:20:00,61.8,59.5,30.02,West,275,0.0,0.0,92,0.00,,---,0.00,VWS V14.01,2013-10-03 05:20:00,
2013-10-03 01:25:00,61.6,59.6,30.02,West,275,0.0,0.0,93,0.00,,---,0.00,VWS V14.01,2013-10-03 05:25:00,
2013-10-03 01:30:00,61.5,59.5,30.02,West,275,0.0,0.0,93,0.00,,---,0.00,VWS V14.01,2013-10-03 05:30:00,
2013-10-03 01:35:00,61.4,59.4,30.02,West,275,0.0,0.0,93,0.00,,---,0.00,VWS V14.01,2013-10-03 05:35:00,
2013-10-03 01:40:00,61.3,59.3,30.02,West,275,0.0,0.0,93,0.00,,---,0.00,VWS V14.01,2013-10-03 05:40:00,
2013-10-03 01:45:00,61.2,59.2,30.02,West,275,0.0,0.0,93,0.00,,---,0.00,VWS V14.01,2013-10-03 05:45:00,
2013-10-03 01:51:00,61.1,59.1,30.02,West,275,0.0,0.0,93,0.00,,---,0.00,VWS V14.01,2013-10-03 05:51:00,
2013-10-03 01:56:00,60.9,58.9,30.02,West,275,0.0,0.0,93,0.00,,---,0.00,VWS V14.01,2013-10-03 05:56:00,
2013-10-03 02:00:00,60.8,59.1,30.03,West,275,0.0,0.0,94,0.00,,---,0.00,VWS V14.01,2013-10-03 06:00:00,
2013-10-03 02:01:00,60.8,59.1,30.02,West,275,0.0,0.0,94,0.00,,---,0.00,VWS V14.01,2013-10-03 06:01:00,
2013-10-03 02:06:00,60.7,59.0,30.03,West,275,0.0,0.0,94,0.00,,---,0.00,VWS V14.01,2013-10-03 06:06:00,
2013-10-03 02:11:00,60.5,58.5,30.03,West,275,0.0,0.0,93,0.00,,---,0.00,VWS V14.01,2013-10-03 06:11:00,
2013-10-03 02:15:00,60.3,58.6,30.03,West,275,0.0,0.0,94,0.00,,---,0.00,VWS V14.01,2013-10-03 06:15:00,
2013-10-03 02:16:00,60.3,58.6,30.03,West,275,0.0,0.0,94,0.00,,---,0.00,VWS V14.01,2013-10-03 06:16:00,
2013-10-03 02:21:00,60.1,58.4,30.03,West,275,0.0,0.0,94,0.00,,---,0.00,VWS V14.01,2013-10-03 06:21:00,
2013-10-03 02:26:00,60.0,58.3,30.03,West,275,0.0,0.0,94,0.00,,---,0.00,VWS V14.01,2013-10-03 06:26:00,
2013-10-03 02:30:00,59.9,58.2,30.03,West,275,0.0,0.0,94,0.00,,---,0.00,VWS V14.01,2013-10-03 06:30:00,
2013-10-03 02:31:00,59.8,58.1,30.03,West,275,0.0,0.0,94,0.00,,---,0.00,VWS V14.01,2013-10-03 06:31:00,
2013-10-03 02:36:00,59.7,58.0,30.03,West,275,0.0,0.0,94,0.00,,---,0.00,VWS V14.01,2013-10-03 06:36:00,
2013-10-03 02:41:00,59.5,57.8,30.03,West,275,0.0,0.0,94,0.00,,---,0.00,VWS V14.01,2013-10-03 06:41:00,
2013-10-03 02:45:00,59.4,57.7,30.03,West,275,0.0,0.0,94,0.00,,---,0.00,VWS V14.01,2013-10-03 06:45:00,
2013-10-03 02:46:00,59.4,57.7,30.03,West,275,0.0,0.0,94,0.00,,---,0.00,VWS V14.01,2013-10-03 06:46:00,
2013-10-03 02:51:00,59.3,57.9,30.03,West,275,0.0,0.0,95,0.00,,---,0.00,VWS V14.01,2013-10-03 06:51:00,
2013-10-03 02:56:00,59.2,57.8,30.03,West,275,0.0,0.0,95,0.00,,---,0.00,VWS V14.01,2013-10-03 06:56:00,
2013-10-03 03:00:00,59.1,57.7,30.03,West,275,0.0,0.0,95,0.00,,---,0.00,VWS V14.01,2013-10-03 07:00:00,
2013-10-03 03:01:00,59.1,57.7,30.03,West,275,0.0,0.0,95,0.00,,---,0.00,VWS V14.01,2013-10-03 07:01:00,
2013-10-03 03:06:00,59.2,57.8,30.03,West,275,0.0,0.0,95,0.00,,---,0.00,VWS V14.01,2013-10-03 07:06:00,
2013-10-03 03:11:00,59.3,58.2,30.03,West,275,0.0,0.0,96,0.00,,---,0.00,VWS V14.01,2013-10-03 07:11:00,
2013-10-03 03:15:00,59.4,58.0,30.03,West,275,0.0,0.0,95,0.00,,---,0.00,VWS V14.01,2013-10-03 07:15:00,
2013-10-03 03:16:00,59.4,58.0,30.03,West,275,0.0,0.0,95,0.00,,---,0.00,VWS V14.01,2013-10-03 07:16:00,
2013-10-03 03:21:00,59.5,58.1,30.04,West,275,0.0,0.0,95,0.00,,---,0.00,VWS V14.01,2013-10-03 07:21:00,
2013-10-03 03:26:00,59.4,58.0,30.04,West,275,0.0,0.0,95,0.00,,---,0.00,VWS V14.01,2013-10-03 07:26:00,
2013-10-03 03:30:00,59.3,57.9,30.04,West,275,0.0,0.0,95,0.00,,---,0.00,VWS V14.01,2013-10-03 07:30:00,
2013-10-03 03:31:00,59.3,57.9,30.04,West,275,0.0,0.0,95,0.00,,---,0.00,VWS V14.01,2013-10-03 07:31:00,
2013-10-03 03:36:00,59.2,57.8,30.04,West,275,0.0,0.0,95,0.00,,---,0.00,VWS V14.01,2013-10-03 07:36:00,
2013-10-03 03:41:00,59.0,57.6,30.04,West,275,0.0,0.0,95,0.00,,---,0.00,VWS V14.01,2013-10-03 07:41:00,
2013-10-03 03:45:00,58.9,57.5,30.04,West,275,0.0,0.0,95,0.00,,---,0.00,VWS V14.01,2013-10-03 07:45:00,
2013-10-03 03:46:00,58.8,57.1,30.04,West,275,0.0,0.0,94,0.00,,---,0.00,VWS V14.01,2013-10-03 07:46:00,
2013-10-03 03:51:00,58.7,57.3,30.04,West,275,0.0,0.0,95,0.00,,---,0.00,VWS V14.01,2013-10-03 07:51:00,
2013-10-03 03:56:00,58.7,57.3,30.04,West,275,0.0,0.0,95,0.00,,---,0.00,VWS V14.01,2013-10-03 07:56:00,
2013-10-03 04:00:00,58.7,57.3,30.04,West,275,0.0,0.0,95,0.00,,---,0.00,VWS V14.01,2013-10-03 08:00:00,
2013-10-03 04:01:00,58.7,57.3,30.04,West,275,0.0,0.0,95,0.00,,---,0.00,VWS V14.01,2013-10-03 08:01:00,
2013-10-03 04:06:00,58.6,57.2,30.05,West,275,0.0,0.0,95,0.00,,---,0.00,VWS V14.01,2013-10-03 08:06:00,
2013-10-03 04:11:00,58.4,57.0,30.04,West,275,0.0,0.0,95,0.00,,---,0.00,VWS V14.01,2013-10-03 08:11:00,
2013-10-03 04:15:00,58.3,56.9,30.05,West,275,0.0,0.0,95,0.00,,---,0.00,VWS V14.01,2013-10-03 08:15:00,
2013-10-03 04:17:00,58.3,56.9,30.04,West,275,0.0,0.0,95,0.00,,---,0.00,VWS V14.01,2013-10-03 08:17:00,
2013-10-03 04:22:00,58.3,56.9,30.05,West,275,0.0,0.0,95,0.00,,---,0.00,VWS V14.01,2013-10-03 08:22:00,
2013-10-03 04:27:00,58.2,57.1,30.05,West,275,0.0,0.0,96,0.00,,---,0.00,VWS V14.01,2013-10-03 08:27:00,
2013-10-03 04:30:00,58.1,57.0,30.05,West,275,0.0,0.0,96,0.00,,---,0.00,VWS V14.01,2013-10-03 08:30:00,
2013-10-03 04:32:00,58.1,56.7,30.05,West,275,0.0,0.0,95,0.00,,---,0.00,VWS V14.01,2013-10-03 08:32:00,
2013-10-03 04:37:00,57.9,56.8,30.05,West,275,0.0,0.0,96,0.00,,---,0.00,VWS V14.01,2013-10-03 08:37:00,
2013-10-03 04:42:00,57.7,56.3,30.05,West,275,0.0,0.0,95,0.00,,---,0.00,VWS V14.01,2013-10-03 08:42:00,
2013-10-03 04:45:00,57.7,56.3,30.05,West,275,0.0,0.0,95,0.00,,---,0.00,VWS V14.01,2013-10-03 08:45:00,
2013-10-03 04:47:00,57.7,56.6,30.05,West,275,0.0,0.0,96,0.00,,---,0.00,VWS V14.01,2013-10-03 08:47:00,
2013-10-03 04:52:00,57.5,56.1,30.05,West,275,0.0,0.0,95,0.00,,---,0.00,VWS V14.01,2013-10-03 08:52:00,
2013-10-03 04:57:00,57.3,56.2,30.05,West,275,0.0,0.0,96,0.00,,---,0.00,VWS V14.01,2013-10-03 08:57:00,
2013-10-03 05:00:00,57.2,56.1,30.05,West,275,0.0,1.0,96,0.00,,---,0.00,VWS V14.01,2013-10-03 09:00:00,
2013-10-03 05:02:00,57.1,55.7,30.05,West,275,0.0,0.0,95,0.00,,---,0.00,VWS V14.01,2013-10-03 09:02:00,
2013-10-03 05:07:00,57.0,55.9,30.05,West,275,0.0,0.0,96,0.00,,---,0.00,VWS V14.01,2013-10-03 09:07:00,
2013-10-03 05:12:00,57.9,56.8,30.05,West,275,0.0,2.0,96,0.00,,---,0.00,VWS V14.01,2013-10-03 09:12:00,
2013-10-03 05:15:00,58.0,56.9,30.05,West,275,0.0,2.0,96,0.00,,---,0.00,VWS V14.01,2013-10-03 09:15:00,
2013-10-03 05:17:00,57.9,56.8,30.05,West,275,0.0,0.0,96,0.00,,---,0.00,VWS V14.01,2013-10-03 09:17:00,
2013-10-03 05:22:00,57.8,56.7,30.05,West,275,0.0,0.0,96,0.00,,---,0.00,VWS V14.01,2013-10-03 09:22:00,
2013-10-03 05:27:00,57.7,56.6,30.05,West,275,0.0,0.0,96,0.00,,---,0.00,VWS V14.01,2013-10-03 09:27:00,
2013-10-03 05:30:00,57.7,56.6,30.05,West,275,0.0,0.0,96,0.00,,---,0.00,VWS V14.01,2013-10-03 09:30:00,
2013-10-03 05:32:00,57.7,56.6,30.05,West,275,0.0,0.0,96,0.00,,---,0.00,VWS V14.01,2013-10-03 09:32:00,
2013-10-03 05:37:00,57.6,56.5,30.06,West,275,0.0,0.0,96,0.00,,---,0.00,VWS V14.01,2013-10-03 09:37:00,
2013-10-03 05:42:00,57.5,56.4,30.06,West,275,0.0,0.0,96,0.00,,---,0.00,VWS V14.01,2013-10-03 09:42:00,
2013-10-03 05:45:00,57.7,56.6,30.06,West,275,0.0,0.0,96,0.00,,---,0.00,VWS V14.01,2013-10-03 09:45:00,
2013-10-03 05:47:00,57.7,56.6,30.06,West,275,0.0,0.0,96,0.00,,---,0.00,VWS V14.01,2013-10-03 09:47:00,
2013-10-03 05:52:00,57.6,56.5,30.06,West,275,0.0,0.0,96,0.00,,---,0.00,VWS V14.01,2013-10-03 09:52:00,
2013-10-03 05:57:00,57.5,56.4,30.06,West,275,0.0,0.0,96,0.00,,---,0.00,VWS V14.01,2013-10-03 09:57:00,
2013-10-03 06:00:00,57.4,56.3,30.06,West,275,0.0,0.0,96,0.00,,---,0.00,VWS V14.01,2013-10-03 10:00:00,
2013-10-03 06:02:00,57.3,56.2,30.06,West,275,0.0,0.0,96,0.00,,---,0.00,VWS V14.01,2013-10-03 10:02:00,
2013-10-03 06:07:00,57.3,56.2,30.07,West,275,0.0,0.0,96,0.00,,---,0.00,VWS V14.01,2013-10-03 10:07:00,
2013-10-03 06:12:00,57.3,56.2,30.07,West,275,0.0,0.0,96,0.00,,---,0.00,VWS V14.01,2013-10-03 10:12:00,
2013-10-03 06:15:00,57.3,56.2,30.07,West,275,0.0,0.0,96,0.00,,---,0.00,VWS V14.01,2013-10-03 10:15:00,
2013-10-03 06:17:00,57.2,56.1,30.07,West,275,0.0,0.0,96,0.00,,---,0.00,VWS V14.01,2013-10-03 10:17:00,
2013-10-03 06:22:00,57.0,55.9,30.07,West,275,0.0,0.0,96,0.00,,---,0.00,VWS V14.01,2013-10-03 10:22:00,
2013-10-03 06:27:00,56.7,55.3,30.07,West,275,0.0,0.0,95,0.00,,---,0.00,VWS V14.01,2013-10-03 10:27:00,
2013-10-03 06:30:00,56.5,55.1,30.07,West,275,0.0,0.0,95,0.00,,---,0.00,VWS V14.01,2013-10-03 10:30:00,
2013-10-03 06:32:00,56.2,54.8,30.07,West,275,0.0,0.0,95,0.00,,---,0.00,VWS V14.01,2013-10-03 10:32:00,
2013-10-03 06:37:00,55.9,54.5,30.07,West,275,0.0,0.0,95,0.00,,---,0.00,VWS V14.01,2013-10-03 10:37:00,
2013-10-03 06:43:00,55.6,54.2,30.07,West,275,0.0,0.0,95,0.00,,---,0.00,VWS V14.01,2013-10-03 10:43:00,
2013-10-03 06:45:00,55.5,54.1,30.07,West,275,0.0,0.0,95,0.00,,---,0.00,VWS V14.01,2013-10-03 10:45:00,
2013-10-03 06:48:00,55.4,54.0,30.07,West,275,0.0,0.0,95,0.00,,---,0.00,VWS V14.01,2013-10-03 10:48:00,
2013-10-03 06:53:00,55.2,54.1,30.07,West,275,0.0,0.0,96,0.00,,---,0.00,VWS V14.01,2013-10-03 10:53:00,
2013-10-03 06:58:00,55.2,54.1,30.07,West,275,0.0,0.0,96,0.00,,---,0.00,VWS V14.01,2013-10-03 10:58:00,
2013-10-03 07:00:00,55.1,54.0,30.08,West,275,0.0,0.0,96,0.00,,---,0.00,VWS V14.01,2013-10-03 11:00:00,
2013-10-03 07:03:00,55.1,54.0,30.07,West,275,0.0,0.0,96,0.00,,---,0.00,VWS V14.01,2013-10-03 11:03:00,
2013-10-03 07:08:00,55.1,54.0,30.07,West,275,0.0,0.0,96,0.00,,---,0.00,VWS V14.01,2013-10-03 11:08:00,
2013-10-03 07:13:00,55.1,54.0,30.07,West,275,0.0,0.0,96,0.00,,---,0.00,VWS V14.01,2013-10-03 11:13:00,
2013-10-03 07:15:00,55.1,54.0,30.07,West,275,0.0,0.0,96,0.00,,---,0.00,VWS V14.01,2013-10-03 11:15:00,
2013-10-03 07:18:00,55.1,54.0,30.08,West,275,0.0,0.0,96,0.00,,---,0.00,VWS V14.01,2013-10-03 11:18:00,
2013-10-03 07:23:00,55.1,54.0,30.08,West,275,0.0,0.0,96,0.00,,---,0.00,VWS V14.01,2013-10-03 11:23:00,
2013-10-03 07:28:00,55.1,54.0,30.08,West,275,0.0,0.0,96,0.00,,---,0.00,VWS V14.01,2013-10-03 11:28:00,
2013-10-03 07:30:00,55.2,54.1,30.08,West,275,0.0,0.0,96,0.00,,---,0.00,VWS V14.01,2013-10-03 11:30:00,
2013-10-03 07:33:00,55.4,54.6,30.08,West,275,0.0,0.0,97,0.00,,---,0.00,VWS V14.01,2013-10-03 11:33:00,
2013-10-03 07:38:00,55.8,55.0,30.08,West,275,0.0,0.0,97,0.00,,---,0.00,VWS V14.01,2013-10-03 11:38:00,
2013-10-03 07:43:00,56.4,55.6,30.09,West,275,0.0,0.0,97,0.00,,---,0.00,VWS V14.01,2013-10-03 11:43:00,
2013-10-03 07:45:00,56.6,55.8,30.09,West,275,0.0,0.0,97,0.00,,---,0.00,VWS V14.01,2013-10-03 11:45:00,
2013-10-03 07:48:00,56.7,55.9,30.09,West,275,0.0,0.0,97,0.00,,---,0.00,VWS V14.01,2013-10-03 11:48:00,
2013-10-03 07:53:00,57.2,56.4,30.09,West,275,0.0,0.0,97,0.00,,---,0.00,VWS V14.01,2013-10-03 11:53:00,
2013-10-03 07:58:00,57.6,56.8,30.09,West,275,0.0,0.0,97,0.00,,---,0.00,VWS V14.01,2013-10-03 11:58:00,
2013-10-03 08:00:00,57.7,56.9,30.09,West,275,0.0,0.0,97,0.00,,---,0.00,VWS V14.01,2013-10-03 12:00:00,
2013-10-03 08:03:00,57.9,57.1,30.10,West,275,0.0,0.0,97,0.00,,---,0.00,VWS V14.01,2013-10-03 12:03:00,
2013-10-03 08:08:00,58.3,57.5,30.10,West,275,0.0,0.0,97,0.00,,---,0.00,VWS V14.01,2013-10-03 12:08:00,
2013-10-03 08:13:00,58.6,57.8,30.10,West,275,0.0,0.0,97,0.00,,---,0.00,VWS V14.01,2013-10-03 12:13:00,
2013-10-03 08:15:00,58.8,58.0,30.10,West,275,0.0,0.0,97,0.00,,---,0.00,VWS V14.01,2013-10-03 12:15:00,
2013-10-03 08:18:00,59.1,58.0,30.10,West,275,0.0,0.0,96,0.00,,---,0.00,VWS V14.01,2013-10-03 12:18:00,
2013-10-03 08:23:00,59.6,58.5,30.10,West,275,0.0,0.0,96,0.00,,---,0.00,VWS V14.01,2013-10-03 12:23:00,
2013-10-03 08:28:00,60.0,58.9,30.10,West,275,0.0,0.0,96,0.00,,---,0.00,VWS V14.01,2013-10-03 12:28:00,
2013-10-03 08:30:00,60.2,59.1,30.10,West,275,0.0,0.0,96,0.00,,---,0.00,VWS V14.01,2013-10-03 12:30:00,
2013-10-03 08:33:00,60.7,59.6,30.10,West,275,0.0,0.0,96,0.00,,---,0.00,VWS V14.01,2013-10-03 12:33:00,
2013-10-03 08:38:00,61.3,59.3,30.10,West,275,0.0,0.0,93,0.00,,---,0.00,VWS V14.01,2013-10-03 12:38:00,
2013-10-03 08:43:00,62.1,59.1,30.10,West,275,0.0,0.0,90,0.00,,---,0.00,VWS V14.01,2013-10-03 12:43:00,
2013-10-03 08:45:00,62.2,59.2,30.10,West,275,0.0,0.0,90,0.00,,---,0.00,VWS V14.01,2013-10-03 12:45:00,
2013-10-03 08:48:00,62.7,59.4,30.10,West,275,0.0,1.0,89,0.00,,---,0.00,VWS V14.01,2013-10-03 12:48:00,
2013-10-03 08:53:00,63.3,59.0,30.11,West,275,0.0,1.0,86,0.00,,---,0.00,VWS V14.01,2013-10-03 12:53:00,
2013-10-03 08:58:00,64.0,59.4,30.11,West,275,0.0,1.0,85,0.00,,---,0.00,VWS V14.01,2013-10-03 12:58:00,
2013-10-03 09:00:00,64.1,59.5,30.11,West,275,0.0,1.0,85,0.00,,---,0.00,VWS V14.01,2013-10-03 13:00:00,
2013-10-03 09:04:00,64.6,59.7,30.11,West,275,0.0,0.0,84,0.00,,---,0.00,VWS V14.01,2013-10-03 13:04:00,
2013-10-03 09:09:00,65.2,59.9,30.11,West,275,0.0,1.0,83,0.00,,---,0.00,VWS V14.01,2013-10-03 13:09:00,
2013-10-03 09:14:00,65.9,59.9,30.11,West,275,0.0,1.0,81,0.00,,---,0.00,VWS V14.01,2013-10-03 13:14:00,
2013-10-03 09:15:00,66.1,59.8,30.11,West,275,0.0,1.0,80,0.00,,---,0.00,VWS V14.01,2013-10-03 13:15:00,
2013-10-03 09:19:00,66.6,59.5,30.11,West,275,0.0,3.0,78,0.00,,---,0.00,VWS V14.01,2013-10-03 13:19:00,
2013-10-03 09:24:00,67.1,58.9,30.11,NW,305,0.0,4.0,75,0.00,,---,0.00,VWS V14.01,2013-10-03 13:24:00,
2013-10-03 09:29:00,67.4,58.8,30.11,NW,306,1.0,4.0,74,0.00,,---,0.00,VWS V14.01,2013-10-03 13:29:00,
2013-10-03 09:30:00,67.5,58.9,30.11,NW,309,0.0,4.0,74,0.00,,---,0.00,VWS V14.01,2013-10-03 13:30:00,
2013-10-03 09:34:00,67.7,59.9,30.11,NW,309,0.0,0.0,76,0.00,,---,0.00,VWS V14.01,2013-10-03 13:34:00,
2013-10-03 09:39:00,67.9,58.9,30.11,NW,309,0.0,1.0,73,0.00,,---,0.00,VWS V14.01,2013-10-03 13:39:00,
2013-10-03 09:44:00,68.1,58.3,30.11,NW,309,0.0,1.0,71,0.00,,---,0.00,VWS V14.01,2013-10-03 13:44:00,
2013-10-03 09:45:00,68.2,58.5,30.11,NW,309,0.0,1.0,71,0.00,,---,0.00,VWS V14.01,2013-10-03 13:45:00,
2013-10-03 09:49:00,68.4,58.6,30.11,NW,309,0.0,0.0,71,0.00,,---,0.00,VWS V14.01,2013-10-03 13:49:00,
2013-10-03 09:54:00,68.5,58.3,30.11,NW,309,0.0,1.0,70,0.00,,---,0.00,VWS V14.01,2013-10-03 13:54:00,
2013-10-03 09:59:00,68.7,58.1,30.11,NW,309,1.0,1.0,69,0.00,,---,0.00,VWS V14.01,2013-10-03 13:59:00,
2013-10-03 10:00:00,68.8,58.2,30.11,NW,309,0.0,1.0,69,0.00,,---,0.00,VWS V14.01,2013-10-03 14:00:00,
2013-10-03 10:04:00,69.0,58.4,30.11,NW,309,0.0,2.0,69,0.00,,---,0.00,VWS V14.01,2013-10-03 14:04:00,
2013-10-03 10:09:00,69.3,58.7,30.11,NW,309,0.0,2.0,69,0.00,,---,0.00,VWS V14.01,2013-10-03 14:09:00,
2013-10-03 10:14:00,69.3,58.3,30.11,NW,309,0.0,2.0,68,0.00,,---,0.00,VWS V14.01,2013-10-03 14:14:00,
2013-10-03 10:15:00,69.3,58.3,30.11,NW,309,0.0,2.0,68,0.00,,---,0.00,VWS V14.01,2013-10-03 14:15:00,
2013-10-03 10:19:00,69.5,58.5,30.11,NW,309,0.0,1.0,68,0.00,,---,0.00,VWS V14.01,2013-10-03 14:19:00,
2013-10-03 10:24:00,70.0,58.5,30.11,NW,309,0.0,1.0,67,0.00,,---,0.00,VWS V14.01,2013-10-03 14:24:00,
2013-10-03 10:29:00,70.5,58.2,30.11,NW,309,0.0,1.0,65,0.00,,---,0.00,VWS V14.01,2013-10-03 14:29:00,
2013-10-03 10:30:00,70.5,58.6,30.11,North,355,4.0,4.0,66,0.00,,---,0.00,VWS V14.01,2013-10-03 14:30:00,
2013-10-03 10:34:00,70.8,58.5,30.11,North,355,0.0,4.0,65,0.00,,---,0.00,VWS V14.01,2013-10-03 14:34:00,
2013-10-03 10:39:00,71.3,58.5,30.11,North,355,0.0,4.0,64,0.00,,---,0.00,VWS V14.01,2013-10-03 14:39:00,
2013-10-03 10:44:00,71.5,57.8,30.10,North,355,0.0,4.0,62,0.00,,---,0.00,VWS V14.01,2013-10-03 14:44:00,
2013-10-03 10:45:00,71.5,57.8,30.10,North,355,0.0,4.0,62,0.00,,---,0.00,VWS V14.01,2013-10-03 14:45:00,
2013-10-03 10:49:00,72.0,56.9,30.10,North,360,0.0,2.0,59,0.00,,---,0.00,VWS V14.01,2013-10-03 14:49:00,
2013-10-03 10:54:00,72.5,57.4,30.10,North,360,0.0,2.0,59,0.00,,---,0.00,VWS V14.01,2013-10-03 14:54:00,
2013-10-03 10:59:00,72.9,57.3,30.10,North,5,3.0,3.0,58,0.00,,---,0.00,VWS V14.01,2013-10-03 14:59:00,
2013-10-03 11:00:00,73.0,57.4,30.10,SSE,164,5.0,5.0,58,0.00,,---,0.00,VWS V14.01,2013-10-03 15:00:00,
2013-10-03 11:04:00,72.8,56.7,30.10,SSE,163,0.0,5.0,57,0.00,,---,0.00,VWS V14.01,2013-10-03 15:04:00,
2013-10-03 11:09:00,73.0,57.8,30.10,SSW,205,2.0,5.0,59,0.00,,---,0.00,VWS V14.01,2013-10-03 15:09:00,
2013-10-03 11:14:00,73.0,57.4,30.10,SW,221,0.0,5.0,58,0.00,,---,0.00,VWS V14.01,2013-10-03 15:14:00,
2013-10-03 11:15:00,73.0,56.9,30.10,SW,221,0.0,5.0,57,0.00,,---,0.00,VWS V14.01,2013-10-03 15:15:00,
2013-10-03 11:19:00,73.6,56.5,30.10,SW,221,1.0,1.0,55,0.00,,---,0.00,VWS V14.01,2013-10-03 15:19:00,
2013-10-03 11:25:00,73.5,56.4,30.10,SW,222,0.0,4.0,55,0.00,,---,0.00,VWS V14.01,2013-10-03 15:25:00,
2013-10-03 11:30:00,73.8,56.6,30.10,SW,221,1.0,4.0,55,0.00,,---,0.00,VWS V14.01,2013-10-03 15:30:00,
2013-10-03 11:35:00,74.4,55.7,30.10,SSE,167,0.0,6.0,52,0.00,,---,0.00,VWS V14.01,2013-10-03 15:35:00,
2013-10-03 11:40:00,74.5,55.7,30.09,SE,143,0.0,6.0,52,0.00,,---,0.00,VWS V14.01,2013-10-03 15:40:00,
2013-10-03 11:45:00,74.6,55.3,30.09,SE,143,0.0,6.0,51,0.00,,---,0.00,VWS V14.01,2013-10-03 15:45:00,
2013-10-03 11:50:00,75.1,54.1,30.09,SSE,160,0.0,5.0,48,0.00,,---,0.00,VWS V14.01,2013-10-03 15:50:00,
2013-10-03 11:55:00,75.3,54.3,30.09,SSE,159,0.0,5.0,48,0.00,,---,0.00,VWS V14.01,2013-10-03 15:55:00,
2013-10-03 12:00:00,75.5,53.9,30.09,SSE,166,0.0,5.0,47,0.00,,---,0.00,VWS V14.01,2013-10-03 16:00:00,
2013-10-03 12:05:00,75.4,54.4,30.09,WSW,255,5.0,5.0,48,0.00,,---,0.00,VWS V14.01,2013-10-03 16:05:00,
2013-10-03 12:10:00,75.6,53.4,30.09,NW,322,0.0,5.0,46,0.00,,---,0.00,VWS V14.01,2013-10-03 16:10:00,
2013-10-03 12:15:00,75.8,53.6,30.09,NW,310,3.0,5.0,46,0.00,,---,0.00,VWS V14.01,2013-10-03 16:15:00,
2013-10-03 12:20:00,75.7,52.3,30.09,WNW,285,0.0,7.0,44,0.00,,---,0.00,VWS V14.01,2013-10-03 16:20:00,
2013-10-03 12:25:00,75.9,53.1,30.08,WNW,285,0.0,7.0,45,0.00,,---,0.00,VWS V14.01,2013-10-03 16:25:00,
2013-10-03 12:30:00,76.6,52.5,30.08,WNW,287,0.0,0.0,43,0.00,,---,0.00,VWS V14.01,2013-10-03 16:30:00,
2013-10-03 12:35:00,76.8,52.0,30.08,NNW,335,5.0,6.0,42,0.00,,---,0.00,VWS V14.01,2013-10-03 16:35:00,
2013-10-03 12:40:00,76.7,50.6,30.08,North,5,0.0,6.0,40,0.00,,---,0.00,VWS V14.01,2013-10-03 16:40:00,
2013-10-03 12:45:00,77.5,52.0,30.08,North,5,0.0,0.0,41,0.00,,---,0.00,VWS V14.01,2013-10-03 16:45:00,
2013-10-03 12:50:00,78.1,51.8,30.08,North,5,0.0,2.0,40,0.00,,---,0.00,VWS V14.01,2013-10-03 16:50:00,
2013-10-03 12:55:00,78.6,53.6,30.08,NNW,346,0.0,2.0,42,0.00,,---,0.00,VWS V14.01,2013-10-03 16:55:00,
2013-10-03 13:00:00,78.5,53.5,30.07,West,259,1.0,1.0,42,0.00,,---,0.00,VWS V14.01,2013-10-03 17:00:00,
2013-10-03 13:05:00,78.4,54.1,30.07,West,259,0.0,2.0,43,0.00,,---,0.00,VWS V14.01,2013-10-03 17:05:00,
2013-10-03 13:10:00,78.7,53.7,30.07,West,259,0.0,2.0,42,0.00,,---,0.00,VWS V14.01,2013-10-03 17:10:00,
2013-10-03 13:15:00,79.0,53.3,30.07,West,260,2.0,3.0,41,0.00,,---,0.00,VWS V14.01,2013-10-03 17:15:00,
2013-10-03 13:20:00,78.8,53.1,30.07,WSW,255,3.0,8.0,41,0.00,,---,0.00,VWS V14.01,2013-10-03 17:20:00,
2013-10-03 13:25:00,78.4,53.4,30.06,NW,315,2.0,8.0,42,0.00,,---,0.00,VWS V14.01,2013-10-03 17:25:00,
2013-10-03 13:30:00,78.1,53.8,30.06,WSW,252,0.0,0.0,43,0.00,,---,0.00,VWS V14.01,2013-10-03 17:30:00,
2013-10-03 13:35:00,78.1,53.8,30.06,WSW,252,0.0,2.0,43,0.00,,---,0.00,VWS V14.01,2013-10-03 17:35:00,
2013-10-03 13:40:00,78.5,53.5,30.06,WSW,252,0.0,2.0,42,0.00,,---,0.00,VWS V14.01,2013-10-03 17:40:00,
2013-10-03 13:45:00,78.7,53.7,30.06,SW,227,0.0,2.0,42,0.00,,---,0.00,VWS V14.01,2013-10-03 17:45:00,
2013-10-03 13:46:00,78.8,53.8,30.06,SW,227,0.0,0.0,42,0.00,,---,0.00,VWS V14.01,2013-10-03 17:46:00,
2013-10-03 13:51:00,79.0,54.0,30.06,South,188,1.0,6.0,42,0.00,,---,0.00,VWS V14.01,2013-10-03 17:51:00,
2013-10-03 13:56:00,79.3,53.6,30.05,SSE,159,4.0,6.0,41,0.00,,---,0.00,VWS V14.01,2013-10-03 17:56:00,
2013-10-03 14:00:00,78.8,53.8,30.05,West,266,9.0,11.0,42,0.00,,---,0.00,VWS V14.01,2013-10-03 18:00:00,
2013-10-03 14:01:00,78.7,53.7,30.05,WSW,252,4.0,8.0,42,0.00,,---,0.00,VWS V14.01,2013-10-03 18:01:00,
2013-10-03 14:06:00,78.0,53.7,30.05,West,279,4.0,9.0,43,0.00,,---,0.00,VWS V14.01,2013-10-03 18:06:00,
2013-10-03 14:11:00,78.1,53.2,30.05,NW,310,0.0,9.0,42,0.00,,---,0.00,VWS V14.01,2013-10-03 18:11:00,
2013-10-03 14:15:00,78.5,53.5,30.05,SW,220,2.0,9.0,42,0.00,,---,0.00,VWS V14.01,2013-10-03 18:15:00,
2013-10-03 14:16:00,78.5,52.9,30.05,SW,220,2.0,3.0,41,0.00,,---,0.00,VWS V14.01,2013-10-03 18:16:00,
2013-10-03 14:21:00,78.5,52.9,30.05,SW,226,0.0,3.0,41,0.00,,---,0.00,VWS V14.01,2013-10-03 18:21:00,
2013-10-03 14:26:00,79.0,53.3,30.05,WSW,242,4.0,8.0,41,0.00,,---,0.00,VWS V14.01,2013-10-03 18:26:00,
2013-10-03 14:30:00,78.7,53.0,30.04,WSW,243,6.0,9.0,41,0.00,,---,0.00,VWS V14.01,2013-10-03 18:30:00,
2013-10-03 14:31:00,78.6,53.6,30.04,SW,232,4.0,6.0,42,0.00,,---,0.00,VWS V14.01,2013-10-03 18:31:00,
2013-10-03 14:36:00,78.2,53.2,30.04,WSW,240,3.0,9.0,42,0.00,,---,0.00,VWS V14.01,2013-10-03 18:36:00,
2013-10-03 14:41:00,78.2,53.2,30.04,West,264,4.0,9.0,42,0.00,,---,0.00,VWS V14.01,2013-10-03 18:41:00,
2013-10-03 14:45:00,78.3,53.3,30.04,WNW,284,4.0,9.0,42,0.00,,---,0.00,VWS V14.01,2013-10-03 18:45:00,
2013-10-03 14:46:00,78.3,53.3,30.04,WNW,284,0.0,6.0,42,0.00,,---,0.00,VWS V14.01,2013-10-03 18:46:00,
2013-10-03 14:51:00,78.4,52.8,30.04,NW,305,5.0,9.0,41,0.00,,---,0.00,VWS V14.01,2013-10-03 18:51:00,
2013-10-03 14:56:00,78.2,53.2,30.04,WNW,282,0.0,9.0,42,0.00,,---,0.00,VWS V14.01,2013-10-03 18:56:00,
2013-10-03 15:00:00,78.1,53.8,30.04,WSW,251,1.0,9.0,43,0.00,,---,0.00,VWS V14.01,2013-10-03 19:00:00,
2013-10-03 15:01:00,78.0,53.7,30.04,SW,215,3.0,6.0,43,0.00,,---,0.00,VWS V14.01,2013-10-03 19:01:00,
2013-10-03 15:06:00,78.0,54.3,30.04,SW,228,3.0,6.0,44,0.00,,---,0.00,VWS V14.01,2013-10-03 19:06:00,
2013-10-03 15:11:00,78.5,54.8,30.04,NW,317,5.0,10.0,44,0.00,,---,0.00,VWS V14.01,2013-10-03 19:11:00,
2013-10-03 15:15:00,78.7,54.3,30.04,WSW,248,5.0,10.0,43,0.00,,---,0.00,VWS V14.01,2013-10-03 19:15:00,
2013-10-03 15:16:00,78.7,54.3,30.04,WSW,246,2.0,7.0,43,0.00,,---,0.00,VWS V14.01,2013-10-03 19:16:00,
2013-10-03 15:21:00,78.7,53.7,30.04,WSW,242,5.0,7.0,42,0.00,,---,0.00,VWS V14.01,2013-10-03 19:21:00,
2013-10-03 15:26:00,78.6,54.9,30.04,SW,229,3.0,8.0,44,0.00,,---,0.00,VWS V14.01,2013-10-03 19:26:00,
2013-10-03 15:30:00,78.5,55.4,30.04,West,261,0.0,8.0,45,0.00,,---,0.00,VWS V14.01,2013-10-03 19:30:00,
2013-10-03 15:31:00,78.6,55.5,30.03,West,265,1.0,3.0,45,0.00,,---,0.00,VWS V14.01,2013-10-03 19:31:00,
2013-10-03 15:36:00,78.5,55.4,30.03,West,267,3.0,9.0,45,0.00,,---,0.00,VWS V14.01,2013-10-03 19:36:00,
2013-10-03 15:41:00,78.2,55.1,30.03,SW,219,0.0,9.0,45,0.00,,---,0.00,VWS V14.01,2013-10-03 19:41:00,
2013-10-03 15:45:00,78.1,56.2,30.03,SW,223,0.0,9.0,47,0.00,,---,0.00,VWS V14.01,2013-10-03 19:45:00,
2013-10-03 15:47:00,78.2,56.3,30.03,WSW,239,3.0,3.0,47,0.00,,---,0.00,VWS V14.01,2013-10-03 19:47:00,
2013-10-03 15:52:00,78.3,55.2,30.03,WSW,242,0.0,4.0,45,0.00,,---,0.00,VWS V14.01,2013-10-03 19:52:00,
2013-10-03 15:57:00,78.1,56.2,30.03,WSW,237,0.0,4.0,47,0.00,,---,0.00,VWS V14.01,2013-10-03 19:57:00,
2013-10-03 16:00:00,78.0,55.6,30.03,SW,223,0.0,4.0,46,0.00,,---,0.00,VWS V14.01,2013-10-03 20:00:00,
2013-10-03 16:02:00,77.9,56.1,30.03,SW,226,0.0,4.0,47,0.00,,---,0.00,VWS V14.01,2013-10-03 20:02:00,
2013-10-03 16:07:00,77.9,56.1,30.03,WSW,240,0.0,5.0,47,0.00,,---,0.00,VWS V14.01,2013-10-03 20:07:00,
2013-10-03 16:12:00,77.7,55.9,30.03,WSW,238,1.0,5.0,47,0.00,,---,0.00,VWS V14.01,2013-10-03 20:12:00,
2013-10-03 16:15:00,77.6,56.4,30.03,WSW,242,0.0,5.0,48,0.00,,---,0.00,VWS V14.01,2013-10-03 20:15:00,
2013-10-03 16:17:00,77.6,56.4,30.03,WSW,242,0.0,0.0,48,0.00,,---,0.00,VWS V14.01,2013-10-03 20:17:00,
2013-10-03 16:22:00,77.6,57.0,30.03,WSW,242,0.0,1.0,49,0.00,,---,0.00,VWS V14.01,2013-10-03 20:22:00,
2013-10-03 16:27:00,77.5,56.9,30.03,WSW,238,1.0,5.0,49,0.00,,---,0.00,VWS V14.01,2013-10-03 20:27:00,
2013-10-03 16:30:00,77.5,56.9,30.03,WSW,246,1.0,5.0,49,0.00,,---,0.00,VWS V14.01,2013-10-03 20:30:00,
2013-10-03 16:32:00,77.5,57.4,30.03,WSW,246,0.0,3.0,50,0.00,,---,0.00,VWS V14.01,2013-10-03 20:32:00,
2013-10-03 16:37:00,77.6,57.5,30.02,SW,236,0.0,3.0,50,0.00,,---,0.00,VWS V14.01,2013-10-03 20:37:00,
2013-10-03 16:42:00,77.5,58.0,30.02,SW,236,0.0,3.0,51,0.00,,---,0.00,VWS V14.01,2013-10-03 20:42:00,
2013-10-03 16:45:00,77.4,58.4,30.02,SW,236,0.0,3.0,52,0.00,,---,0.00,VWS V14.01,2013-10-03 20:45:00,
2013-10-03 16:47:00,77.3,58.8,30.02,SW,236,1.0,2.0,53,0.00,,---,0.00,VWS V14.01,2013-10-03 20:47:00,
2013-10-03 16:52:00,77.2,57.7,30.02,SSW,202,0.0,2.0,51,0.00,,---,0.00,VWS V14.01,2013-10-03 20:52:00,
2013-10-03 16:57:00,77.3,57.8,30.02,SSW,202,0.0,2.0,51,0.00,,---,0.00,VWS V14.01,2013-10-03 20:57:00,
2013-10-03 17:00:00,77.2,57.7,30.02,SSW,202,0.0,2.0,51,0.00,,---,0.00,VWS V14.01,2013-10-03 21:00:00,
2013-10-03 17:02:00,77.2,58.2,30.02,SSW,202,0.0,0.0,52,0.00,,---,0.00,VWS V14.01,2013-10-03 21:02:00,
2013-10-03 17:07:00,77.3,57.8,30.02,SSW,202,0.0,0.0,51,0.00,,---,0.00,VWS V14.01,2013-10-03 21:07:00,
2013-10-03 17:12:00,77.2,58.2,30.02,SSW,202,0.0,0.0,52,0.00,,---,0.00,VWS V14.01,2013-10-03 21:12:00,
2013-10-03 17:15:00,77.1,57.6,30.02,SSW,201,0.0,1.0,51,0.00,,---,0.00,VWS V14.01,2013-10-03 21:15:00,
2013-10-03 17:17:00,77.0,57.5,30.02,SSW,201,0.0,1.0,51,0.00,,---,0.00,VWS V14.01,2013-10-03 21:17:00,
2013-10-03 17:22:00,76.8,57.9,30.02,SSW,198,0.0,2.0,52,0.00,,---,0.00,VWS V14.01,2013-10-03 21:22:00,
2013-10-03 17:27:00,76.6,58.2,30.03,SSW,198,0.0,2.0,53,0.00,,---,0.00,VWS V14.01,2013-10-03 21:27:00,
2013-10-03 17:30:00,76.5,58.1,30.03,SSW,198,0.0,2.0,53,0.00,,---,0.00,VWS V14.01,2013-10-03 21:30:00,
2013-10-03 17:32:00,76.4,58.0,30.03,SSW,198,0.0,0.0,53,0.00,,---,0.00,VWS V14.01,2013-10-03 21:32:00,
2013-10-03 17:37:00,76.1,58.3,30.03,SSW,198,0.0,0.0,54,0.00,,---,0.00,VWS V14.01,2013-10-03 21:37:00,
2013-10-03 17:42:00,76.0,58.2,30.03,SSW,198,0.0,0.0,54,0.00,,---,0.00,VWS V14.01,2013-10-03 21:42:00,
2013-10-03 17:45:00,75.9,58.1,30.03,SSW,198,0.0,0.0,54,0.00,,---,0.00,VWS V14.01,2013-10-03 21:45:00,
2013-10-03 17:47:00,75.9,58.1,30.03,SSW,198,0.0,1.0,54,0.00,,---,0.00,VWS V14.01,2013-10-03 21:47:00,
2013-10-03 17:52:00,75.9,58.6,30.03,SSW,198,0.0,1.0,55,0.00,,---,0.00,VWS V14.01,2013-10-03 21:52:00,
2013-10-03 17:57:00,75.8,58.0,30.03,SSW,198,0.0,1.0,54,0.00,,---,0.00,VWS V14.01,2013-10-03 21:57:00,
2013-10-03 18:00:00,75.7,58.9,30.03,SSW,198,0.0,1.0,56,0.00,,---,0.00,VWS V14.01,2013-10-03 22:00:00,
2013-10-03 18:02:00,75.5,58.2,30.03,SSW,198,0.0,0.0,55,0.00,,---,0.00,VWS V14.01,2013-10-03 22:02:00,
2013-10-03 18:07:00,75.3,59.0,30.03,SSW,198,0.0,0.0,57,0.00,,---,0.00,VWS V14.01,2013-10-03 22:07:00,
2013-10-03 18:13:00,75.2,59.4,30.03,SSW,198,0.0,0.0,58,0.00,,---,0.00,VWS V14.01,2013-10-03 22:13:00,
2013-10-03 18:15:00,75.1,59.3,30.03,SSW,198,0.0,0.0,58,0.00,,---,0.00,VWS V14.01,2013-10-03 22:15:00,
2013-10-03 18:18:00,75.0,59.7,30.03,SSW,198,0.0,0.0,59,0.00,,---,0.00,VWS V14.01,2013-10-03 22:18:00,
2013-10-03 18:23:00,74.9,59.6,30.03,SSW,198,0.0,0.0,59,0.00,,---,0.00,VWS V14.01,2013-10-03 22:23:00,
2013-10-03 18:28:00,74.6,59.3,30.03,SSW,198,0.0,0.0,59,0.00,,---,0.00,VWS V14.01,2013-10-03 22:28:00,
2013-10-03 18:30:00,74.4,59.6,30.03,SSW,198,0.0,0.0,60,0.00,,---,0.00,VWS V14.01,2013-10-03 22:30:00,
2013-10-03 18:33:00,74.2,59.4,30.03,SSW,198,0.0,0.0,60,0.00,,---,0.00,VWS V14.01,2013-10-03 22:33:00,
2013-10-03 18:38:00,74.0,59.7,30.03,SSW,198,0.0,0.0,61,0.00,,---,0.00,VWS V14.01,2013-10-03 22:38:00,
2013-10-03 18:43:00,73.8,60.0,30.03,SSW,198,0.0,0.0,62,0.00,,---,0.00,VWS V14.01,2013-10-03 22:43:00,
2013-10-03 18:45:00,73.7,59.9,30.03,SSW,198,0.0,0.0,62,0.00,,---,0.00,VWS V14.01,2013-10-03 22:45:00,
2013-10-03 18:48:00,73.6,59.8,30.03,SSW,198,0.0,0.0,62,0.00,,---,0.00,VWS V14.01,2013-10-03 22:48:00,
2013-10-03 18:53:00,73.3,60.0,30.04,SE,143,0.0,5.0,63,0.00,,---,0.00,VWS V14.01,2013-10-03 22:53:00,
2013-10-03 18:58:00,73.1,59.8,30.03,SE,142,1.0,5.0,63,0.00,,---,0.00,VWS V14.01,2013-10-03 22:58:00,
2013-10-03 19:00:00,73.2,59.9,30.03,SE,141,0.0,5.0,63,0.00,,---,0.00,VWS V14.01,2013-10-03 23:00:00,
2013-10-03 19:03:00,73.2,59.9,30.03,SSW,196,3.0,5.0,63,0.00,,---,0.00,VWS V14.01,2013-10-03 23:03:00,
2013-10-03 19:08:00,73.1,59.8,30.03,SE,132,0.0,5.0,63,0.00,,---,0.00,VWS V14.01,2013-10-03 23:08:00,
2013-10-03 19:13:00,72.9,60.0,30.03,SE,127,0.0,5.0,64,0.00,,---,0.00,VWS V14.01,2013-10-03 23:13:00,
2013-10-03 19:15:00,72.9,60.0,30.03,SE,127,0.0,5.0,64,0.00,,---,0.00,VWS V14.01,2013-10-03 23:15:00,
2013-10-03 19:18:00,72.8,59.9,30.03,SE,138,0.0,4.0,64,0.00,,---,0.00,VWS V14.01,2013-10-03 23:18:00,
2013-10-03 19:23:00,72.7,59.8,30.03,SSE,148,0.0,6.0,64,0.00,,---,0.00,VWS V14.01,2013-10-03 23:23:00,
2013-10-03 19:28:00,72.6,59.3,30.03,SE,130,4.0,7.0,63,0.00,,---,0.00,VWS V14.01,2013-10-03 23:28:00,
2013-10-03 19:30:00,72.5,59.6,30.03,SE,130,0.0,7.0,64,0.00,,---,0.00,VWS V14.01,2013-10-03 23:30:00,
2013-10-03 19:33:00,72.4,59.5,30.03,SE,130,0.0,1.0,64,0.00,,---,0.00,VWS V14.01,2013-10-03 23:33:00,
2013-10-03 19:38:00,72.2,59.4,30.04,SE,131,0.0,3.0,64,0.00,,---,0.00,VWS V14.01,2013-10-03 23:38:00,
2013-10-03 19:43:00,72.0,59.6,30.03,SE,138,0.0,7.0,65,0.00,,---,0.00,VWS V14.01,2013-10-03 23:43:00,
2013-10-03 19:45:00,71.9,59.5,30.03,SE,138,0.0,7.0,65,0.00,,---,0.00,VWS V14.01,2013-10-03 23:45:00,
2013-10-03 19:48:00,71.8,59.4,30.04,SE,140,0.0,1.0,65,0.00,,---,0.00,VWS V14.01,2013-10-03 23:48:00,
2013-10-03 19:53:00,71.6,59.2,30.04,SE,140,0.0,3.0,65,0.00,,---,0.00,VWS V14.01,2013-10-03 23:53:00,
2013-10-03 19:58:00,71.4,59.0,30.04,SE,140,0.0,3.0,65,0.00,,---,0.00,VWS V14.01,2013-10-03 23:58:00,
2013-10-03 20:00:00,71.4,59.0,30.04,SE,140,0.0,3.0,65,0.00,,---,0.00,VWS V14.01,2013-10-04 00:00:00,
2013-10-03 20:03:00,71.3,59.4,30.04,SE,142,0.0,4.0,66,0.00,,---,0.00,VWS V14.01,2013-10-04 00:03:00,
2013-10-03 20:08:00,71.2,59.3,30.04,SE,142,0.0,4.0,66,0.00,,---,0.00,VWS V14.01,2013-10-04 00:08:00,
2013-10-03 20:13:00,71.1,59.2,30.04,SE,142,0.0,4.0,66,0.00,,---,0.00,VWS V14.01,2013-10-04 00:13:00,
2013-10-03 20:15:00,71.0,59.1,30.04,SE,142,0.0,4.0,66,0.00,,---,0.00,VWS V14.01,2013-10-04 00:15:00,
2013-10-03 20:18:00,70.9,59.0,30.04,SE,142,0.0,0.0,66,0.00,,---,0.00,VWS V14.01,2013-10-04 00:18:00,
2013-10-03 20:23:00,70.8,59.3,30.04,SE,142,0.0,0.0,67,0.00,,---,0.00,VWS V14.01,2013-10-04 00:23:00,
2013-10-03 20:28:00,70.7,59.2,30.04,SE,142,0.0,1.0,67,0.00,,---,0.00,VWS V14.01,2013-10-04 00:28:00,
2013-10-03 20:30:00,70.6,59.1,30.05,SE,142,0.0,1.0,67,0.00,,---,0.00,VWS V14.01,2013-10-04 00:30:00,
2013-10-03 20:33:00,70.5,59.0,30.05,SE,142,0.0,0.0,67,0.00,,---,0.00,VWS V14.01,2013-10-04 00:33:00,
2013-10-03 20:39:00,70.4,59.3,30.05,SE,142,0.0,0.0,68,0.00,,---,0.00,VWS V14.01,2013-10-04 00:39:00,
2013-10-03 20:44:00,70.1,59.1,30.05,SE,142,0.0,1.0,68,0.00,,---,0.00,VWS V14.01,2013-10-04 00:44:00,
2013-10-03 20:45:00,70.1,59.1,30.05,SE,142,0.0,1.0,68,0.00,,---,0.00,VWS V14.01,2013-10-04 00:45:00,
2013-10-03 20:49:00,69.9,58.9,30.04,SE,142,0.0,4.0,68,0.00,,---,0.00,VWS V14.01,2013-10-04 00:49:00,
2013-10-03 20:54:00,69.8,58.8,30.05,SSE,148,0.0,5.0,68,0.00,,---,0.00,VWS V14.01,2013-10-04 00:54:00,
2013-10-03 20:59:00,69.7,59.1,30.05,SE,146,0.0,5.0,69,0.00,,---,0.00,VWS V14.01,2013-10-04 00:59:00,
2013-10-03 21:00:00,69.6,58.6,30.05,SE,146,0.0,5.0,68,0.00,,---,0.00,VWS V14.01,2013-10-04 01:00:00,
2013-10-03 21:04:00,69.5,58.5,30.05,SE,146,0.0,1.0,68,0.00,,---,0.00,VWS V14.01,2013-10-04 01:04:00,
2013-10-03 21:09:00,69.4,58.4,30.05,SE,146,0.0,1.0,68,0.00,,---,0.00,VWS V14.01,2013-10-04 01:09:00,
2013-10-03 21:14:00,69.2,58.2,30.05,SE,146,0.0,1.0,68,0.00,,---,0.00,VWS V14.01,2013-10-04 01:14:00,
2013-10-03 21:15:00,69.2,58.2,30.05,SE,146,0.0,1.0,68,0.00,,---,0.00,VWS V14.01,2013-10-04 01:15:00,
2013-10-03 21:19:00,69.1,58.1,30.05,SE,146,0.0,0.0,68,0.00,,---,0.00,VWS V14.01,2013-10-04 01:19:00,
2013-10-03 21:24:00,68.9,58.3,30.05,SE,146,0.0,0.0,69,0.00,,---,0.00,VWS V14.01,2013-10-04 01:24:00,
2013-10-03 21:29:00,68.7,58.1,30.05,SE,146,0.0,0.0,69,0.00,,---,0.00,VWS V14.01,2013-10-04 01:29:00,
2013-10-03 21:30:00,68.7,58.1,30.05,SE,146,0.0,0.0,69,0.00,,---,0.00,VWS V14.01,2013-10-04 01:30:00,
2013-10-03 21:34:00,68.5,57.9,30.05,SE,146,0.0,0.0,69,0.00,,---,0.00,VWS V14.01,2013-10-04 01:34:00,
2013-10-03 21:39:00,68.4,57.8,30.05,SE,146,0.0,0.0,69,0.00,,---,0.00,VWS V14.01,2013-10-04 01:39:00,
2013-10-03 21:44:00,68.1,58.0,30.05,SE,146,0.0,0.0,70,0.00,,---,0.00,VWS V14.01,2013-10-04 01:44:00,
2013-10-03 21:45:00,68.1,58.0,30.05,SE,146,0.0,0.0,70,0.00,,---,0.00,VWS V14.01,2013-10-04 01:45:00,
2013-10-03 21:49:00,67.9,57.8,30.05,SE,146,0.0,0.0,70,0.00,,---,0.00,VWS V14.01,2013-10-04 01:49:00,
2013-10-03 21:54:00,67.7,58.0,30.05,SE,146,0.0,0.0,71,0.00,,---,0.00,VWS V14.01,2013-10-04 01:54:00,
2013-10-03 21:59:00,67.5,57.8,30.05,SE,146,0.0,0.0,71,0.00,,---,0.00,VWS V14.01,2013-10-04 01:59:00,
2013-10-03 22:00:00,67.4,57.7,30.05,SE,146,0.0,0.0,71,0.00,,---,0.00,VWS V14.01,2013-10-04 02:00:00,
2013-10-03 22:04:00,67.3,58.0,30.05,SE,146,0.0,0.0,72,0.00,,---,0.00,VWS V14.01,2013-10-04 02:04:00,
2013-10-03 22:09:00,67.0,57.7,30.05,SE,146,0.0,0.0,72,0.00,,---,0.00,VWS V14.01,2013-10-04 02:09:00,
2013-10-03 22:14:00,66.7,57.8,30.05,SE,146,0.0,0.0,73,0.00,,---,0.00,VWS V14.01,2013-10-04 02:14:00,
2013-10-03 22:15:00,66.6,57.7,30.05,SE,146,0.0,0.0,73,0.00,,---,0.00,VWS V14.01,2013-10-04 02:15:00,
2013-10-03 22:19:00,66.6,57.7,30.05,SE,146,0.0,0.0,73,0.00,,---,0.00,VWS V14.01,2013-10-04 02:19:00,
2013-10-03 22:24:00,66.7,57.8,30.06,SE,146,0.0,0.0,73,0.00,,---,0.00,VWS V14.01,2013-10-04 02:24:00,
2013-10-03 22:29:00,66.6,57.7,30.06,SE,146,0.0,0.0,73,0.00,,---,0.00,VWS V14.01,2013-10-04 02:29:00,
2013-10-03 22:30:00,66.6,57.7,30.06,SE,146,0.0,0.0,73,0.00,,---,0.00,VWS V14.01,2013-10-04 02:30:00,
2013-10-03 22:34:00,66.5,58.0,30.06,SE,146,0.0,0.0,74,0.00,,---,0.00,VWS V14.01,2013-10-04 02:34:00,
2013-10-03 22:39:00,66.3,57.4,30.06,SE,146,0.0,0.0,73,0.00,,---,0.00,VWS V14.01,2013-10-04 02:39:00,
2013-10-03 22:44:00,66.2,57.3,30.06,SE,146,0.0,0.0,73,0.00,,---,0.00,VWS V14.01,2013-10-04 02:44:00,
2013-10-03 22:45:00,66.2,57.3,30.06,SE,146,0.0,0.0,73,0.00,,---,0.00,VWS V14.01,2013-10-04 02:45:00,
2013-10-03 22:49:00,66.2,57.7,30.06,SE,146,0.0,0.0,74,0.00,,---,0.00,VWS V14.01,2013-10-04 02:49:00,
2013-10-03 22:54:00,66.1,57.2,30.06,SE,146,0.0,0.0,73,0.00,,---,0.00,VWS V14.01,2013-10-04 02:54:00,
2013-10-03 22:59:00,66.1,57.2,30.06,SE,146,0.0,0.0,73,0.00,,---,0.00,VWS V14.01,2013-10-04 02:59:00,
2013-10-03 23:00:00,66.1,57.2,30.06,SE,146,0.0,0.0,73,0.00,,---,0.00,VWS V14.01,2013-10-04 03:00:00,
2013-10-03 23:04:00,65.9,57.4,30.06,SE,146,0.0,0.0,74,0.00,,---,0.00,VWS V14.01,2013-10-04 03:04:00,
2013-10-03 23:10:00,65.6,57.5,30.06,SE,146,0.0,0.0,75,0.00,,---,0.00,VWS V14.01,2013-10-04 03:10:00,
2013-10-03 23:15:00,65.3,57.2,30.06,SE,146,0.0,0.0,75,0.00,,---,0.00,VWS V14.01,2013-10-04 03:15:00,
2013-10-03 23:20:00,65.0,57.6,30.06,SE,146,0.0,0.0,77,0.00,,---,0.00,VWS V14.01,2013-10-04 03:20:00,
2013-10-03 23:25:00,64.8,57.8,30.06,SE,146,0.0,0.0,78,0.00,,---,0.00,VWS V14.01,2013-10-04 03:25:00,
2013-10-03 23:30:00,64.5,57.5,30.06,SE,146,0.0,0.0,78,0.00,,---,0.00,VWS V14.01,2013-10-04 03:30:00,
2013-10-03 23:35:00,64.2,57.2,30.06,SE,146,0.0,0.0,78,0.00,,---,0.00,VWS V14.01,2013-10-04 03:35:00,
2013-10-03 23:40:00,63.9,57.3,30.06,SE,146,0.0,0.0,79,0.00,,---,0.00,VWS V14.01,2013-10-04 03:40:00,
2013-10-03 23:45:00,63.7,57.4,30.06,SE,146,0.0,0.0,80,0.00,,---,0.00,VWS V14.01,2013-10-04 03:45:00,
2013-10-03 23:50:00,63.6,57.3,30.06,SE,146,0.0,0.0,80,0.00,,---,0.00,VWS V14.01,2013-10-04 03:50:00,
2013-10-03 23:55:00,63.5,57.2,30.06,SE,146,0.0,0.0,80,0.00,,---,0.00,VWS V14.01,2013-10-04 03:55:00,